Regional Weather Roundup
Issued by NWS Little Rock, AR

Home | Current Version | Previous Version | Text Only | Print | Product List | Glossary On
Versions: 1 2 3 4 5 6 7 8 9 10 11 12 13 14 15 16 17 18 19 20 21 22 23 24 25 26 27 28 29 30 31 32 33 34 35 36 37 38 39 40 41 42 43 44 45 46 47 48 49 50
000
ASUS44 KLZK 281005
RWRLZK

WEATHER ROUNDUP FOR ARKANSAS
NATIONAL WEATHER SERVICE LITTLE ROCK AR
500 AM CDT TUE MAR 28 2017

NOTE: "FAIR" INDICATES FEW OR NO CLOUDS BELOW 12,000 FEET WITH NO
SIGNIFICANT WEATHER AND/OR OBSTRUCTIONS TO VISIBILITY.

ARZ001-003-010-029-281100-
NORTHWEST ARKANSAS

CITY           SKY/WX    TMP DP  RH WIND       PRES   REMARKS
FAYETTEVILLE   CLOUDY    50  49  96 N5        29.96F
FORT SMITH     CLEAR     45  43  93 NE3       29.95F
HARRISON       CLOUDY    52  49  89 CALM      29.98R
BENTONVILLE    CLOUDY    52  46  82 CALM      29.98S
ROGERS         CLOUDY    51  48  89 NE6       29.98S
SILOAM SPGS    CLOUDY    52  45  76 NE5       29.97S
HIGHFILL       CLOUDY    52  49  89 NE3       29.97S
$$

ARZ004-005-016-281100-
NORTH CENTRAL ARKANSAS

CITY           SKY/WX    TMP DP  RH WIND       PRES   REMARKS
BATESVILLE     CLOUDY    54  50  87 NW3       29.98R
FLIPPIN        CLOUDY    54  46  76 CALM      29.96R
MTN HOME       CLOUDY    53  51  93 CALM      29.97R
$$

ARZ040-041-281100-
WEST CENTRAL ARKANSAS

CITY           SKY/WX    TMP DP  RH WIND       PRES   REMARKS
MENA           CLOUDY    46  46 100 CALM      29.94S VSB 1/4
MOUNT IDA      PTCLDY    49  47  93 CALM      29.93R FOG
$$

ARZ009-017-025-026-028-281100-
NORTHEAST ARKANSAS

CITY           SKY/WX    TMP DP  RH WIND       PRES   REMARKS
CORNING        PTSUNNY   54  54 100 N6        29.97R
JONESBORO      CLOUDY    57  55  93 NE5       29.95S
NEWPORT        CLOUDY    56  53  90 N8        29.97R
WALNUT RIDGE   MOCLDY    54  50  87 NW5       29.97R
BLYTHEVILLE    PTCLDY    53  53 100 CALM      29.96R
$$

ARZ022-023-033-042-044-281100-
CENTRAL ARKANSAS

CITY           SKY/WX    TMP DP  RH WIND       PRES   REMARKS
LITTLE ROCK    PTCLDY    55  52  89 N7        29.95
N LITTLE ROCK    N/A     55  51  88 N6        29.95R
JACKSONVILLE   CLEAR     55  52  89 CALM      29.94S
CONWAY         FOG       52  52 100 CALM      29.95R VSB 1/4
SEARCY         CLEAR     54  53  97 N5        29.97R
HOT SPRINGS    PTCLDY    51  50  96 CALM      29.95R
RUSSELLVILLE   PTCLDY    50  50 100 CALM      29.96R
CLINTON        CLOUDY    54  52  94 CALM      29.97R
$$

ARZ036-281100-
EAST ARKANSAS

CITY           SKY/WX    TMP DP  RH WIND       PRES   REMARKS
WEST MEMPHIS   CLOUDY    59  59 100 N5        29.93R FOG
$$

ARZ050-053-066-070-073-281100-
SOUTHWEST ARKANSAS

CITY           SKY/WX    TMP DP  RH WIND       PRES   REMARKS
ARKADELPHIA    FAIR      57  54  89 CALM      29.95R
CAMDEN         CLOUDY    59  54  82 CALM      29.93R
TEXARKANA      MOCLDY    59  55  87 E5        29.92S
EL DORADO      CLOUDY    62  57  83 N3        29.93R
DE QUEEN       CLEAR     52  51  97 CALM      29.91R
$$

ARZ056-057-069-281100-
SOUTHEAST ARKANSAS

CITY           SKY/WX    TMP DP  RH WIND       PRES   REMARKS
PINE BLUFF     MOCLDY    59  55  87 N7        29.94R
STUTTGART      CLEAR     57  46  67 N6        29.95R
MONTICELLO     MOCLDY    62  56  80 N5        29.92R

$$





USA.gov is the U.S. government's official web portal to all federal, state and local government web resources and services.